This is the latest recevied weather packets stored in our database for station/object DL0BB-10. If no packets are shown the sender has not sent any weather packets the latest 10 day(s).
| Time | Temp. | Humidity | Pressure | Rain* | Wind** | Luminosity | Snow |
|---|---|---|---|---|---|---|---|
| 1787775272 | 26.11° C | 40% | 1014.4 hPa | - | - | - | - |
| 1787774372 | 26.11° C | 39% | 1014.4 hPa | - | - | - | - |
| 1787773472 | 27.22° C | 38% | 1014.4 hPa | - | - | - | - |
| 1787772572 | 26.11° C | 40% | 1014.5 hPa | - | - | - | - |
| 1787771671 | 26.11° C | 40% | 1014.5 hPa | - | - | - | - |
| 1787770771 | 26.67° C | 39% | 1014.3 hPa | - | - | - | - |
| 1787769871 | 27.22° C | 38% | 1014.2 hPa | - | - | - | - |
| 1787768971 | 26.11° C | 40% | 1014.2 hPa | - | - | - | - |
| 1787768071 | 26.11° C | 40% | 1014.2 hPa | - | - | - | - |
| 1787767171 | 26.67° C | 39% | 1014.3 hPa | - | - | - | - |
| 1787766270 | 27.22° C | 38% | 1014.3 hPa | - | - | - | - |
| 1787765370 | 26.11° C | 40% | 1014.2 hPa | - | - | - | - |
| 1787764470 | 26.67° C | 40% | 1014.2 hPa | - | - | - | - |
| 1787763570 | 26.67° C | 39% | 1014.4 hPa | - | - | - | - |
| 1787762669 | 27.22° C | 38% | 1014.6 hPa | - | - | - | - |
| 1787761769 | 26.11° C | 40% | 1014.8 hPa | - | - | - | - |
| 1787760869 | 26.67° C | 40% | 1014.9 hPa | - | - | - | - |
| 1787759969 | 26.67° C | 38% | 1014.8 hPa | - | - | - | - |
| 1787759069 | 27.22° C | 38% | 1014.8 hPa | - | - | - | - |
| 1787758169 | 26.11° C | 40% | 1014.9 hPa | - | - | - | - |
| 1787757269 | 26.67° C | 39% | 1015 hPa | - | - | - | - |
| 1787756368 | 26.67° C | 38% | 1015.2 hPa | - | - | - | - |
| 1787755473 | 26.67° C | 38% | 1015.3 hPa | - | - | - | - |
| 1787754573 | 26.11° C | 40% | 1015.5 hPa | - | - | - | - |
| 1787753673 | 26.11° C | 39% | 1015.6 hPa | - | - | - | - |
* Rain since midnight (hover to see other rain measurements)
** Current wind speed in m/s (hover to see current wind gust speed)